FW4291 Weather Reports


time (UTC)temp
C
wind
direction
speed
KPH
gust
KPH
rain 1hr
cm
rain 24hr
cm
rain mn
cm
humidity
%
barometer
mb
20201025133056 24 0.0 9.7 0.00 0.00 0.00 38 1017.6
20201025132100 25 22 1.6 9.7 0.00 0.00 0.00 37 1018.7
20201025131027 25 337 8.0 9.7 0.00 0.00 0.00 35 1018.7
20201025130047 25 215 8.0 9.7 0.00 0.00 0.00 34 1018.7
20201025125040 26 266 6.4 9.7 0.00 0.00 0.00 33 1018.7
20201025124036 27 180 12.9 17.7 0.00 0.00 0.00 31 1017.6
20201025123033 28 180 1.6 9.7 0.00 0.00 0.00 34 1017.6
20201025122041 28 0.0 9.7 0.00 0.00 0.00 33 1017.6
20201025121056 29 56 4.8 9.7 0.00 0.00 0.00 31 1017.6
20201025120052 32 65 6.4 9.7 0.00 0.00 0.00 29 1017.6
20201025115040 33 56 4.8 9.7 0.00 0.00 0.00 26 1018.7
20201025114030 34 34 1.6 9.7 0.00 0.00 0.00 26 1018.7
20201025113021 34 345 4.8 9.7 0.00 0.00 0.00 27 1018.7
20201025112058 34 22 3.2 9.7 0.00 0.00 0.00 27 1018.7
20201025111056 33 301 4.8 9.7 0.00 0.00 0.00 27 1018.7
20201025110026 33 22 4.8 9.7 0.00 0.00 0.00 28 1018.7
20201025105032 33 79 1.6 9.7 0.00 0.00 0.00 28 1018.7
20201025104018 33 56 4.8 9.7 0.00 0.00 0.00 28 1018.7
20201025103023 33 40 4.8 9.7 0.00 0.00 0.00 29 1018.7
20201025102026 32 225 1.6 9.7 0.00 0.00 0.00 29 1018.7
20201025101056 32 22 1.6 9.7 0.00 0.00 0.00 30 1019.9
20201025100059 32 305 4.8 9.7 0.00 0.00 0.00 30 1019.9
20201025095055 31 41 4.8 9.7 0.00 0.00 0.00 31 1019.9
20201025094056 31 112 3.2 9.7 0.00 0.00 0.00 32 1019.9
20201025093032 31 86 3.2 9.7 0.00 0.00 0.00 33 1019.9
20201025092034 30 202 1.6 9.7 0.00 0.00 0.00 34 1019.9
20201025091025 30 180 0.0 9.7 0.00 0.00 0.00 34 1021.0
20201025090028 29 337 3.2 9.7 0.00 0.00 0.00 36 1021.0
20201025085055 29 67 1.6 9.7 0.00 0.00 0.00 37 1021.0
20201025084025 28 72 3.2 9.7 0.00 0.00 0.00 38 1021.0
20201025083055 28 135 0.0 9.7 0.00 0.00 0.00 38 1021.0
20201025082058 27 67 1.6 9.7 0.00 0.00 0.00 39 1021.0
20201025081055 27 74 1.6 9.7 0.00 0.00 0.00 40 1021.0
20201025080029 26 22 1.6 9.7 0.00 0.00 0.00 40 1021.0
20201025075031 26 0.0 9.7 0.00 0.00 0.00 41 1021.0
20201025074050 26 247 1.6 9.7 0.00 0.00 0.00 41 1021.0
20201025073030 25 67 1.6 9.7 0.00 0.00 0.00 42 1021.0
20201025072036 25 40 3.2 9.7 0.00 0.00 0.00 42 1021.0
20201025071048 24 90 1.6 9.7 0.00 0.00 0.00 43 1022.2
20201025070056 23 325 1.6 9.7 0.00 0.00 0.00 43 1022.2
20201025065038 23 0.0 9.7 0.00 0.00 0.00 44 1022.2
20201025064055 23 0 1.6 9.7 0.00 0.00 0.00 44 1022.2
20201025063040 22 0.0 9.7 0.00 0.00 0.00 45 1022.2
20201025062019 22 0.0 9.7 0.00 0.00 0.00 45 1022.2
20201025061052 22 22 3.2 9.7 0.00 0.00 0.00 45 1022.2
20201025060054 22 0.0 9.7 0.00 0.00 0.00 46 1022.2
20201025055017 21 22 1.6 9.7 0.00 0.00 0.00 46 1022.2
20201025054019 21 45 1.6 9.7 0.00 0.00 0.00 47 1022.2
20201025053036 21 0.0 9.7 0.00 0.00 0.00 48 1022.2
20201025052021 20 45 1.6 9.7 0.00 0.00 0.00 48 1022.2
20201025051055 20 0.0 9.7 0.00 0.00 0.00 48 1022.2
20201025050055 20 0.0 9.7 0.00 0.00 0.00 48 1022.2
20201025045029 20 180 1.6 9.7 0.00 0.00 0.00 49 1022.2
20201025044027 20 0.0 9.7 0.00 0.00 0.00 49 1022.2
20201025043101 20 0.0 9.7 0.00 0.00 0.00 49
20201025042054 19 0.0 9.7 0.00 0.00 0.00 49 1022.2
20201025041019 19 0.0 9.7 0.00 0.00 0.00 49 1022.2
20201025040032 19 0.0 9.7 0.00 0.00 0.00 48
20201025035021 19 0.0 9.7 0.00 0.00 0.00 48 1021.0
20201025034105 19 0.0 9.7 0.00 0.00 0.00 48 1021.0
20201025033033 20 0.0 9.7 0.00 0.00 0.00 48
20201025032054 19 0.0 9.7 0.00 0.00 0.00 48 1021.0
20201025031043 19 0.0 9.7 0.00 0.00 0.00 47 1021.0
20201025030053 18 202 1.6 9.7 0.00 0.00 0.00 47
20201025025028 19 0.0 9.7 0.00 0.00 0.00 47 1021.0
20201025024017 20 0.0 9.7 0.00 0.00 0.00 47 1021.0
20201025023030 19 0.0 9.7 0.00 0.00 0.00 47
20201025022101 20 0.0 9.7 0.00 0.00 0.00 47 1021.0
20201025021036 20 0.0 9.7 0.00 0.00 0.00 47 1019.9
20201025020105 20 0.0 9.7 0.00 0.00 0.00 47
20201025015035 20 0.0 9.7 0.00 0.00 0.00 47 1021.0
20201025014054 20 0.0 9.7 0.00 0.00 0.00 46 1021.0
20201025013054 21 0.0 9.7 0.00 0.00 0.00 46
20201025012040 20 0.0 9.7 0.00 0.00 0.00 46 1021.0
20201025011029 20 180 1.6 9.7 0.00 0.00 0.00 46 1021.0
20201025010030 20 180 1.6 3.2 0.00 0.00 0.00 46
20201025005047 20 180 1.6 9.7 0.00 0.00 0.00 46 1021.0
20201025004024 21 0.0 9.7 0.00 0.00 0.00 45 1021.0
20201025003053 21 0.0 9.7 0.00 0.00 0.00 45
20201025002022 21 0.0 9.7 0.00 0.00 0.00 45 1021.0
20201025001028 21 0.0 9.7 0.00 0.00 0.00 45 1021.0
20201025000056 21 0.0 9.7 0.00 0.00 0.00 45
20201024235053 21 0.0 9.7 0.00 0.00 0.00 46 1021.0
20201024234026 21 0.0 9.7 0.00 0.00 0.00 45 1022.2
20201024233031 21 0.0 9.7 0.00 0.00 0.00 46
20201024232035 21 0.0 9.7 0.00 0.00 0.00 46 1021.0
20201024231016 22 0.0 9.7 0.00 0.00 0.00 45 1021.0
20201024230041 21 0.0 9.7 0.00 0.00 0.00 46
20201024225052 22 0.0 9.7 0.00 0.00 0.00 45 1021.0
20201024224026 22 0.0 9.7 0.00 0.00 0.00 45 1021.0
20201024223053 22 0.0 9.7 0.00 0.00 0.00 45
20201024222053 22 90 3.2 9.7 0.00 0.00 0.00 45 1021.0
20201024221052 22 67 1.6 9.7 0.00 0.00 0.00 45 1022.2
20201024220029 22 45 1.6 9.7 0.00 0.00 0.00 46
20201024215042 22 0.0 9.7 0.00 0.00 0.00 46 1022.2
20201024214022 22 0.0 9.7 0.00 0.00 0.00 46 1022.2
20201024213036 22 56 1.6 9.7 0.00 0.00 0.00 46
20201024212025 22 67 0.0 9.7 0.00 0.00 0.00 46 1022.2
20201024211052 22 0.0 9.7 0.00 0.00 0.00 46 1022.2
20201024210043 22 45 0.0 9.7 0.00 0.00 0.00 47
20201024205051 22 0.0 9.7 0.00 0.00 0.00 47 1021.0
20201024204026 22 0.0 9.7 0.00 0.00 0.00 47 1022.2
20201024203032 22 0.0 9.7 0.00 0.00 0.00 47
20201024202054 22 0.0 9.7 0.00 0.00 0.00 47 1021.0
20201024201041 22 0.0 9.7 0.00 0.00 0.00 48 1021.0
20201024200053 22 0.0 9.7 0.00 0.00 0.00 48 1021.0
20201024195030 22 0.0 9.7 0.00 0.00 0.00 48 1021.0
20201024194051 22 189 1.6 9.7 0.00 0.00 0.00 47 1021.0
20201024193040 22 193 1.6 9.7 0.00 0.00 0.00 46 1019.9
20201024192045 22 180 1.6 9.7 0.00 0.00 0.00 46 1019.9
20201024191054 23 22 9.7 14.5 0.00 0.00 0.00 45 1022.2
20201024190044 23 45 1.6 9.7 0.00 0.00 0.00 44 1022.2
20201024185034 22 0.0 9.7 0.00 0.00 0.00 43 1022.2
20201024184032 23 238 12.9 16.1 0.00 0.00 0.00 42 1022.2
20201024183021 23 157 6.4 11.3 0.00 0.00 0.00 41 1021.0
20201024182040 25 178 3.2 9.7 0.00 0.00 0.00 40 1021.0
20201024181057 25 30 6.4 9.7 0.00 0.00 0.00 38 1019.9
20201024180104 25 53 4.8 9.7 0.00 0.00 0.00 38 1019.9
20201024175039 25 81 3.2 9.7 0.00 0.00 0.00 38 1019.9
20201024174033 25 0.0 9.7 0.00 0.00 0.00 38 1019.9
20201024173035 25 0 1.6 9.7 0.00 0.00 0.00 38 1019.9
20201024172051 25 0.0 9.7 0.00 0.00 0.00 38 1019.9
20201024171051 25 45 1.6 9.7 0.00 0.00 0.00 38 1018.7
20201024170055 25 45 3.2 9.7 0.00 0.00 0.00 38 1019.9
20201024165023 26 0.0 9.7 0.00 0.00 0.00 39 1019.9
20201024164051 26 57 3.2 9.7 0.00 0.00 0.00 39 1018.7
20201024163054 26 112 1.6 9.7 0.00 0.00 0.00 41 1018.7
20201024162046 26 0.0 9.7 0.00 0.00 0.00 41 1018.7
20201024161031 26 0.0 9.7 0.00 0.00 0.00 40 1018.7
20201024160023 26 0.0 9.7 0.00 0.00 0.00 40 1018.7
20201024155030 26 135 1.6 9.7 0.00 0.00 0.00 39 1018.7
20201024154031 27 0.0 9.7 0.00 0.00 0.00 38 1018.7
20201024153042 27 0.0 9.7 0.00 0.00 0.00 37 1018.7
20201024152028 27 0.0 9.7 0.00 0.00 0.00 36 1018.7
20201024151040 27 67 1.6 9.7 0.00 0.00 0.00 34 1017.6
20201024150021 27 274 1.6 9.7 0.00 0.00 0.00 33 1017.6
20201024145056 28 22 4.8 9.7 0.00 0.00 0.00 31 1017.6
20201024144047 30 22 9.7 9.7 0.00 0.00 0.00 29 1017.6
20201024143043 31 11 9.7 12.9 0.00 0.00 0.00 28 1017.6
20201024142054 31 353 6.4 12.9 0.00 0.00 0.00 28 1017.6
20201024141017 31 33 8.0 9.7 0.00 0.00 0.00 28 1017.6
20201024140051 32 22 3.2 9.7 0.00 0.00 0.00 28 1017.6
20201024135022 32 11 4.8 9.7 0.00 0.00 0.00 28 1017.6
20201024134032 32 349 6.4 9.7 0.00 0.00 0.00 28 1017.6